Volver al catálogo

STARLINK-37965

ActivoComunicacionesSSO
NORAD 69753·PAYLOAD·🇺🇸 United States

Lanzado Jul 2, 2026 desde Vandenberg Space Force Base

Loading…

Próximos Pases (próximas 24 horas)

TLE

ActualizadoSource: CelesTrak SupGP

Época: Sep 14, 2026, 22:43 UTC

1 69753C 26150Q   26257.94701389  .00089965  00000+0  27932-2 0  2575
2 69753  97.2846  96.9909 0001707  92.4255  43.2411 15.33388082    19

Sigue STARLINK-37965 en tiempo real con AllMySat

Download on the App Store